This is the latest recevied weather packets stored in our database for station/object DL6MAA-11. If no packets are shown the sender has not sent any weather packets the latest 1 day(s).
| Time | Temp. | Humidity | Pressure | Rain* | Wind** | Luminosity | Snow |
|---|---|---|---|---|---|---|---|
| 1777965119 | 13.89° C | 71% | 1006.6 hPa | 0 mm | 0.89 m/s, 296° | 329 W/m² | - |
| 1777964819 | 13.89° C | 73% | 1006.6 hPa | 0 mm | 0.45 m/s, 273° | 320 W/m² | - |
| 1777964524 | 13.89° C | 75% | 1006.6 hPa | 0 mm | 0 m/s | 288 W/m² | - |
| 1777964226 | 13.33° C | 76% | 1006.8 hPa | 0 mm | 0 m/s | 193 W/m² | - |
| 1777963925 | 13.33° C | 76% | 1006.8 hPa | 0 mm | 0 m/s | 148 W/m² | - |
| 1777963623 | 13.33° C | 76% | 1006.8 hPa | 0 mm | 0 m/s | 153 W/m² | - |
| 1777963328 | 13.33° C | 78% | 1006.9 hPa | 0 mm | 0 m/s | 121 W/m² | - |
| 1777963026 | 12.78° C | 78% | 1006.9 hPa | 0 mm | 0 m/s | 167 W/m² | - |
| 1777962728 | 12.78° C | 78% | 1006.9 hPa | 0 mm | 0 m/s | 163 W/m² | - |
| 1777962419 | 12.78° C | 78% | 1007.1 hPa | 0 mm | 0 m/s | 116 W/m² | - |
| 1777962128 | 12.78° C | 79% | 1007.1 hPa | 0 mm | 0 m/s | 139 W/m² | - |
| 1777961816 | 12.22° C | 79% | 1007.1 hPa | 0 mm | 0 m/s | 116 W/m² | - |
| 1777961516 | 12.22° C | 80% | 1006.7 hPa | 0 mm | 0.45 m/s, 157° | 144 W/m² | - |
| 1777961219 | 12.22° C | 79% | 1006.7 hPa | 0 mm | 0.45 m/s, 157° | 171 W/m² | - |
| 1777960917 | 12.22° C | 80% | 1006.7 hPa | 0 mm | 0.45 m/s, 183° | 160 W/m² | - |
| 1777960621 | 11.67° C | 81% | 1006.8 hPa | 0 mm | 0.45 m/s, 172° | 174 W/m² | - |
| 1777960326 | 11.11° C | 82% | 1006.8 hPa | 0 mm | 0.45 m/s, 177° | 156 W/m² | - |
| 1777960028 | 11.11° C | 82% | 1006.8 hPa | 0 mm | 0.45 m/s, 173° | 125 W/m² | - |
| 1777959716 | 10.56° C | 83% | 1006.7 hPa | 0 mm | 0.45 m/s, 172° | 153 W/m² | - |
| 1777959418 | 10° C | 83% | 1006.7 hPa | 0 mm | 0.45 m/s, 184° | 95 W/m² | - |
| 1777959119 | 10° C | 84% | 1006.7 hPa | 0 mm | 0 m/s | 141 W/m² | - |
| 1777958821 | 9.44° C | 85% | 1006.9 hPa | 0 mm | 0 m/s | 137 W/m² | - |
| 1777958525 | 8.89° C | 85% | 1006.9 hPa | 0 mm | 0 m/s | 128 W/m² | - |
| 1777958219 | 8.89° C | 85% | 1006.9 hPa | 0 mm | 0 m/s | 107 W/m² | - |
| 1777957914 | 8.33° C | 85% | 1007.1 hPa | 0 mm | 0 m/s | 104 W/m² | - |
* Rain since midnight (hover to see other rain measurements)
** Current wind speed in m/s (hover to see current wind gust speed)